Regional Weather Roundup
Issued by NWS Nashville, TN

Home | Current Version | Previous Version | Text Only | Print | Product List | Glossary On
Versions: 1 2 3 4 5 6 7 8 9 10 11 12 13 14 15 16 17 18 19 20 21 22 23 24 25 26 27 28 29 30 31 32 33 34 35 36 37 38 39 40 41 42 43 44 45 46 47 48 49 50
000
ASUS44 KOHX 230315
RWROHX
MIDDLE TENNESSEE HOURLY WEATHER ROUNDUP
NATIONAL WEATHER SERVICE NASHVILLE TN
900 PM CST MON DEC 22 2014

NOTE: "FAIR" INDICATES FEW OR NO CLOUDS BELOW 12,000 FEET WITH
NO SIGNIFICANT WEATHER AND/OR OBSTRUCTIONS TO VISIBILITY.

* THESE REPORTS ARE NOT UNDER NWS QUALITY CONTROL AND MAY NOT
  REPORT WEATHER SUCH AS PRECIPITATION AND FOG.


TNZ005>011-023>034-057-059-062>066-078-080-230400
...NORTHERN MIDDLE TENNESSEE...

CITY           SKY/WX    TMP DP  RH WIND       PRES   REMARKS
CLARKSVILLE    CLOUDY    52  51  97 S5        29.69R
CROSSVILLE     CLOUDY    49  46  90 VRB3      29.80S
GALLATIN       CLOUDY    51  51 100 VRB3      29.73S
DICKSON          N/A     50  48  93 S12       29.69R
LEBANON        CLOUDY    52  48  86 S10       29.71F
LIVINGSTON     CLOUDY    52  48  86 S9        29.75F
NASHVILLE      CLOUDY    54  48  82 S14       29.73R
WEST NASHVILLE CLOUDY    50  50 100 SE6       29.71S
PORTLAND       CLOUDY    50  48  93 S13       29.70R
SMYRNA         CLOUDY    53  49  86 S10       29.75R
SPARTA         CLOUDY    52  50  93 S10       29.75S
$$
TNZ056-058-060-061-075>077-079-093>097-230400
...SOUTHERN MIDDLE TENNESSEE...

CITY           SKY/WX    TMP DP  RH WIND       PRES   REMARKS
COLUMBIA       CLOUDY   N/A N/A N/A S10       29.72R
LEWISBURG      CLOUDY    51  48  89 S12       29.74R
MCMINNVILLE    CLOUDY    52  52 100 CALM      29.77R
MURFREESBORO   CLOUDY    52  48  86 SE13      29.73S
SHELBYVILLE    MOCLDY    50  48  93 SE12      29.77R
TULLAHOMA      CLOUDY    46  46 100 SE10      29.78R
WINCHESTER     CLOUDY    48  46  93 SE16      29.79R
$$


...KEY TO REMARKS...
VSB - VISIBILITY IN MILES
WCI - WIND CHILL INDEX
HX  - HEAT INDEX




USA.gov is the U.S. government's official web portal to all federal, state and local government web resources and services.